DT_LEITURA;HR_LEITURA;MED-PressaoAtm[hPa];VAL-TempExt[oC];VAL-UmidExt[%UR];VAL-TempInt[oC];VAL-UmidInt[%UR];Dir-Vento[grau];Vel-Vento[m/s];Precipitação[mm/h]
28/08/2026;00:04:00;1007,8;;;21,2;78;18;6,2;0,0
28/08/2026;00:09:00;1007,8;;;21,2;77;21;7,0;0,0
28/08/2026;00:14:00;1007,8;;;21,2;78;22;6,1;0,0
28/08/2026;00:19:00;1007,8;;;21,2;78;18;7,0;0,0
28/08/2026;00:24:00;1007,8;;;21,2;78;20;6,5;0,0
28/08/2026;00:29:00;1007,7;;;21,3;77;21;6,3;0,0
28/08/2026;00:34:00;1007,7;;;21,3;77;20;5,9;0,0
28/08/2026;00:39:00;1007,6;;;21,3;77;20;6,2;0,0
28/08/2026;00:44:00;1007,5;;;21,2;77;24;8,0;0,0
28/08/2026;00:49:00;1007,5;;;21,2;77;21;8,3;0,0
28/08/2026;00:54:00;1007,5;;;21,2;77;22;7,6;0,0
28/08/2026;00:59:00;1007,4;;;21,2;77;23;8,3;0,0
28/08/2026;01:04:00;1007,5;;;21,2;78;23;7,9;0,0
28/08/2026;01:09:00;1007,4;;;21,2;77;24;8,0;0,0
28/08/2026;01:14:00;1007,2;;;21,2;77;25;8,5;0,0
28/08/2026;01:19:00;1007,2;;;21,2;77;26;8,6;0,0
28/08/2026;01:24:00;1007,0;;;21,2;77;23;8,6;0,0
28/08/2026;01:29:00;1007,0;;;21,2;77;22;8,3;0,0
28/08/2026;01:34:00;1007,1;;;21,2;77;24;8,0;0,0
28/08/2026;01:39:00;1007,0;;;21,2;78;23;8,6;0,0
28/08/2026;01:44:00;1007,0;;;21,2;78;23;8,5;0,0
28/08/2026;01:49:00;1007,0;;;21,2;78;24;8,1;0,0
28/08/2026;01:54:00;1006,9;;;21,1;78;24;7,7;0,0
28/08/2026;01:59:00;1006,8;;;21,1;78;25;7,7;0,0
28/08/2026;02:04:00;1006,8;;;21,1;78;22;7,6;0,0
28/08/2026;02:09:00;1006,7;;;21,1;78;24;7,1;0,0
28/08/2026;02:14:00;1006,7;;;21,1;78;23;7,3;0,0
28/08/2026;02:19:00;1006,6;;;21,1;78;25;7,9;0,0
28/08/2026;02:24:00;1006,6;;;21,1;78;25;7,4;0,0
28/08/2026;02:29:00;1006,6;;;21,1;78;24;7,6;0,0
28/08/2026;02:34:00;1006,5;;;21,1;78;27;7,3;0,0
28/08/2026;02:39:00;1006,3;;;21,1;78;29;8,1;0,0
28/08/2026;02:44:00;1006,3;;;21,1;78;30;7,4;0,0
28/08/2026;02:49:00;1006,3;;;21,0;78;25;7,6;0,0
28/08/2026;02:54:00;1006,2;;;21,0;78;27;8,2;0,0
28/08/2026;02:59:00;1006,2;;;21,0;78;24;7,5;0,0
28/08/2026;03:04:00;1006,1;;;21,0;78;22;8,0;0,0
28/08/2026;03:09:00;1006,1;;;20,9;78;26;6,9;0,0
28/08/2026;03:14:00;1006,2;;;20,9;78;24;6,0;0,0
28/08/2026;03:19:00;1006,2;;;20,9;78;26;5,7;0,0
28/08/2026;03:24:00;1006,2;;;20,9;78;28;5,3;0,0
28/08/2026;03:29:00;1006,1;;;20,9;78;28;5,1;0,0
28/08/2026;03:34:00;1006,2;;;20,9;78;25;4,3;0,0
28/08/2026;03:39:00;1006,1;;;20,9;78;25;4,7;0,0
28/08/2026;03:44:00;1006,1;;;20,9;78;21;5,3;0,0
28/08/2026;03:49:00;1006,1;;;20,9;78;29;5,7;0,0
28/08/2026;03:54:00;1006,1;;;20,9;78;21;5,6;0,0
28/08/2026;03:59:00;1006,0;;;20,9;78;26;5,8;0,0
28/08/2026;04:04:00;1005,9;;;20,8;78;26;5,9;0,0
28/08/2026;04:09:00;1005,7;;;20,8;78;27;7,2;0,0
28/08/2026;04:14:00;1005,7;;;20,8;78;29;7,2;0,0
28/08/2026;04:19:00;1005,7;;;20,9;78;23;6,4;0,0
28/08/2026;04:24:00;1005,6;;;20,9;78;27;6,8;0,0
28/08/2026;04:29:00;1005,6;;;20,9;78;26;6,0;0,0
28/08/2026;04:34:00;1005,6;;;20,8;78;27;6,5;0,0
28/08/2026;04:39:00;1005,6;;;20,8;78;29;6,1;0,0
28/08/2026;04:44:00;1005,7;;;20,7;78;28;6,5;0,0
28/08/2026;04:49:00;1005,7;;;20,7;78;28;6,1;0,0
28/08/2026;04:54:00;1005,6;;;20,7;78;26;6,2;0,0
28/08/2026;04:59:00;1005,7;;;20,7;78;28;5,6;0,0
28/08/2026;05:04:00;1005,8;;;20,7;78;26;5,4;0,0
28/08/2026;05:09:00;1005,7;;;20,7;78;26;5,4;0,0
28/08/2026;05:14:00;1005,5;;;20,7;78;23;5,5;0,0
28/08/2026;05:19:00;1005,3;;;20,7;78;24;5,6;0,0
28/08/2026;05:24:00;1005,4;;;20,7;78;15;4,8;0,0
28/08/2026;05:29:00;1005,3;;;20,7;78;26;4,1;0,0
28/08/2026;05:34:00;1005,3;;;20,8;78;23;4,6;0,0
28/08/2026;05:39:00;1005,3;;;20,8;78;22;4,5;0,0
28/08/2026;05:44:00;1005,2;;;20,8;78;23;4,7;0,0
28/08/2026;05:49:00;1005,4;;;20,8;78;23;4,7;0,0
28/08/2026;05:54:00;1005,4;;;20,8;78;25;4,2;0,0
28/08/2026;05:59:00;1005,4;;;20,8;78;23;4,1;0,0
28/08/2026;06:04:00;1005,5;;;20,7;78;24;4,2;0,0
28/08/2026;06:09:00;1005,5;;;20,7;78;26;4,2;0,0
28/08/2026;06:14:00;1005,5;;;20,7;78;26;5,0;0,0
28/08/2026;06:19:00;1005,5;;;20,7;78;20;4,9;0,0
28/08/2026;06:24:00;1005,5;;;20,7;78;23;5,6;0,0
28/08/2026;06:29:00;1005,4;;;20,7;78;25;6,0;0,0
28/08/2026;06:34:00;1005,3;;;20,7;78;22;6,1;0,0
28/08/2026;06:39:00;1005,3;;;20,7;78;24;5,9;0,0
28/08/2026;06:44:00;1005,3;;;20,7;78;24;5,8;0,0
28/08/2026;06:49:00;1005,4;;;20,7;78;22;6,1;0,0
28/08/2026;06:54:00;1005,3;;;20,7;79;25;6,3;0,0
28/08/2026;06:59:00;1005,4;;;20,7;79;25;6,0;0,0
28/08/2026;07:04:00;1005,4;;;20,7;79;20;5,6;0,0
28/08/2026;07:09:00;1005,3;;;20,8;78;24;5,9;0,0
28/08/2026;07:14:00;1005,3;;;20,8;78;23;5,5;0,0
28/08/2026;07:19:00;1005,2;;;20,8;78;23;5,1;0,0
28/08/2026;07:24:00;1005,2;;;20,9;78;24;5,3;0,0
28/08/2026;07:29:00;1005,3;;;20,9;78;27;4,3;0,0
28/08/2026;07:34:00;1005,3;;;20,9;79;25;4,1;0,0
28/08/2026;07:39:00;1005,3;;;20,9;79;25;4,4;0,0
28/08/2026;07:44:00;1005,3;;;21,0;79;27;5,1;0,0
28/08/2026;07:49:00;1005,4;;;21,1;79;27;5,0;0,0
28/08/2026;07:54:00;1005,3;;;21,1;79;25;5,4;0,0
28/08/2026;07:59:00;1005,2;;;21,1;79;29;4,3;0,0
28/08/2026;08:04:00;1005,1;;;21,2;79;24;5,3;0,0
28/08/2026;08:09:00;1005,0;;;21,2;80;21;5,0;0,0
28/08/2026;08:14:00;1005,1;;;21,3;80;21;4,2;0,0
28/08/2026;08:19:00;1005,3;;;21,4;80;21;4,9;0,0
28/08/2026;08:24:00;1005,4;;;21,5;81;17;3,9;0,0
28/08/2026;08:29:00;1005,4;;;21,6;81;21;4,6;0,0
28/08/2026;08:34:00;1005,4;;;21,7;81;22;5,1;0,0
28/08/2026;08:39:00;1005,4;;;21,9;81;24;5,6;0,0
28/08/2026;08:44:00;1005,5;;;22,0;81;24;5,5;0,0
28/08/2026;08:49:00;1005,6;;;22,1;81;24;4,4;0,0
28/08/2026;08:54:00;1005,6;;;22,3;81;25;4,8;0,0
28/08/2026;08:59:00;1005,7;;;22,5;81;20;3,9;0,0
28/08/2026;09:04:00;1005,8;;;22,6;80;16;4,0;0,0
28/08/2026;09:09:00;1005,8;;;22,8;80;15;4,6;0,0
28/08/2026;09:14:00;1005,7;;;22,9;79;12;4,9;0,0
28/08/2026;09:19:00;1005,5;;;22,9;79;19;4,5;0,0
28/08/2026;09:24:00;1005,5;;;23,0;79;20;4,5;0,0
28/08/2026;09:29:00;1005,4;;;23,1;79;20;4,7;0,0
28/08/2026;09:34:00;1005,3;;;23,2;79;22;5,1;0,0
28/08/2026;09:39:00;1005,2;;;23,3;79;25;5,6;0,0
28/08/2026;09:44:00;1005,1;;;23,4;78;20;5,8;0,0
28/08/2026;09:49:00;1005,0;;;23,4;78;19;5,0;0,0
28/08/2026;09:54:00;1005,0;;;23,4;79;23;4,6;0,0
28/08/2026;09:59:00;1005,0;;;23,4;79;19;4,5;0,0
28/08/2026;10:04:00;1004,9;;;23,5;79;20;4,5;0,0
28/08/2026;10:09:00;1004,9;;;23,5;79;23;4,3;0,0
28/08/2026;10:14:00;1005,0;;;23,6;79;25;4,4;0,0
28/08/2026;10:19:00;1004,9;;;23,6;79;23;4,1;0,0
28/08/2026;10:24:00;1004,9;;;23,7;79;21;4,9;0,0
28/08/2026;10:29:00;1005,0;;;23,7;78;16;5,3;0,0
28/08/2026;10:34:00;1005,0;;;23,7;78;21;4,4;0,0
28/08/2026;10:39:00;1004,9;;;23,6;78;24;4,3;0,0
28/08/2026;10:44:00;1004,8;;;23,6;78;22;4,9;0,0
28/08/2026;10:49:00;1004,8;;;23,5;78;20;4,6;0,0
28/08/2026;10:54:00;1004,8;;;23,5;78;21;5,3;0,0
28/08/2026;10:59:00;1004,7;;;23,4;78;24;6,8;0,0
28/08/2026;11:04:00;1004,5;;;23,4;78;21;7,1;0,0
28/08/2026;11:09:00;1004,3;;;23,3;78;20;6,7;0,0
28/08/2026;11:14:00;1004,2;;;23,3;79;22;6,8;0,0
28/08/2026;11:19:00;1004,1;;;23,2;79;27;6,7;0,0
28/08/2026;11:24:00;1003,9;;;23,2;79;25;7,3;0,0
28/08/2026;11:29:00;1003,9;;;23,2;79;28;6,5;0,0
28/08/2026;11:34:00;1003,7;;;23,2;78;28;7,2;0,0
28/08/2026;11:39:00;1003,6;;;23,1;78;25;6,7;0,0
28/08/2026;11:44:00;1003,5;;;23,1;79;26;7,3;0,0
28/08/2026;11:49:00;1003,4;;;23,1;79;22;6,9;0,0
28/08/2026;11:54:00;1003,3;;;23,1;79;27;6,5;0,0
28/08/2026;11:59:00;1003,1;;;23,1;79;22;6,8;0,0
28/08/2026;12:04:00;1003,0;;;23,1;79;24;5,7;0,0
28/08/2026;12:09:00;1003,0;;;23,1;79;25;5,5;0,0
28/08/2026;12:14:00;1002,9;;;23,2;79;24;6,3;0,0
28/08/2026;12:19:00;1002,9;;;23,3;79;24;7,0;0,0
28/08/2026;12:24:00;1002,9;;;23,3;79;23;6,0;0,0
28/08/2026;12:29:00;1002,9;;;23,3;79;25;5,4;0,0
28/08/2026;12:34:00;1002,8;;;23,4;79;28;5,7;0,0
28/08/2026;12:39:00;1002,7;;;23,4;79;26;6,4;0,0
28/08/2026;12:44:00;1002,6;;;23,4;78;28;6,1;0,0
28/08/2026;12:49:00;1002,5;;;23,4;78;25;6,2;0,0
28/08/2026;12:54:00;1002,5;;;23,4;78;28;6,1;0,0
28/08/2026;12:59:00;1002,5;;;23,4;78;25;6,3;0,0
28/08/2026;13:04:00;1002,4;;;23,5;78;20;5,9;0,0
28/08/2026;13:09:00;1002,3;;;23,5;78;26;6,2;0,0
28/08/2026;13:14:00;1002,2;;;23,5;78;24;5,6;0,0
28/08/2026;13:19:00;1002,1;;;23,5;78;21;5,8;0,0
28/08/2026;13:24:00;1002,2;;;23,5;78;19;5,4;0,0
28/08/2026;13:29:00;1002,3;;;23,5;78;22;5,2;0,0
28/08/2026;13:34:00;1002,4;;;23,5;78;23;4,5;0,0
28/08/2026;13:39:00;1002,5;;;23,5;78;22;4,1;0,0
28/08/2026;13:44:00;1002,4;;;23,4;78;26;5,5;0,0
28/08/2026;13:49:00;1002,3;;;23,4;78;24;4,7;0,0
28/08/2026;13:54:00;1002,1;;;23,3;78;23;5,3;0,0
28/08/2026;13:59:00;1002,1;;;23,2;78;23;5,0;0,0
28/08/2026;14:04:00;1002,1;;;23,2;78;21;4,1;0,0
28/08/2026;14:09:00;1002,1;;;23,1;78;17;3,9;0,0
28/08/2026;14:14:00;1002,1;;;23,1;79;19;3,9;0,0
28/08/2026;14:19:00;1002,2;;;23,2;79;15;4,8;0,0
28/08/2026;14:24:00;1002,4;;;23,2;79;9;2,7;0,0
28/08/2026;14:29:00;1002,6;;;23,3;79;16;2,8;0,0
28/08/2026;14:34:00;1002,7;;;23,4;79;10;3,0;0,0
28/08/2026;14:39:00;1002,8;;;23,5;79;3;2,5;0,0
28/08/2026;14:44:00;1003,0;;;23,6;80;325;1,6;0,0
28/08/2026;14:49:00;1003,4;;;23,8;80;305;1,5;0,0
28/08/2026;14:54:00;1003,6;;;24,0;80;226;1,1;0,0
28/08/2026;14:59:00;1003,6;;;24,2;79;40;1,2;0,0
28/08/2026;15:04:00;1003,5;;;24,3;79;58;1,7;0,0
28/08/2026;15:09:00;1003,3;;;24,5;78;320;1,2;0,0
28/08/2026;15:14:00;1003,1;;;24,6;78;346;0,6;0,0
28/08/2026;15:19:00;1003,0;;;24,7;78;309;0,6;0,0
28/08/2026;15:24:00;1003,1;;;24,8;78;58;1,6;0,0
28/08/2026;15:29:00;1003,2;;;24,9;78;359;1,1;0,0
28/08/2026;15:34:00;1003,2;;;25,0;78;283;1,2;0,0
28/08/2026;15:39:00;1003,1;;;25,1;77;7;1,6;0,0
28/08/2026;15:44:00;1002,9;;;25,1;77;41;2,0;0,0
28/08/2026;15:49:00;1002,9;;;25,1;77;43;1,9;0,0
28/08/2026;15:54:00;1002,9;;;25,0;77;50;1,9;0,0
28/08/2026;15:59:00;1002,7;;;24,9;77;66;0,8;0,0
28/08/2026;16:04:00;1002,7;;;24,8;77;298;0,5;0,0
28/08/2026;16:09:00;1003,0;;;24,9;78;282;1,4;0,0
28/08/2026;16:14:00;1003,3;;;25,0;78;249;2,7;0,0
28/08/2026;16:19:00;1003,6;;;25,1;78;230;3,3;0,0
28/08/2026;16:24:00;1003,9;;;25,1;76;224;3,4;0,0
28/08/2026;16:29:00;1004,0;;;25,1;75;233;2,9;0,0
28/08/2026;16:34:00;1004,2;;;24,9;75;233;3,5;0,0
28/08/2026;16:39:00;1004,0;;;24,7;75;236;2,7;0,0
28/08/2026;16:44:00;1003,7;;;24,4;76;250;1,6;0,0
28/08/2026;16:49:00;1004,0;;;24,2;76;210;1,8;0,0
28/08/2026;16:54:00;1005,1;;;24,0;76;253;2,6;0,0
28/08/2026;16:59:00;1005,0;;;23,9;77;185;1,2;0,0
28/08/2026;17:04:00;1005,2;;;23,8;77;246;2,9;0,0
28/08/2026;17:09:00;1005,3;;;23,7;77;243;2,1;0,0
28/08/2026;17:14:00;1005,0;;;23,5;77;240;3,1;0,0
28/08/2026;17:19:00;1004,8;;;23,4;77;242;3,6;0,0
28/08/2026;17:24:00;1005,0;;;23,3;77;245;3,5;0,0
28/08/2026;17:29:00;1005,4;;;23,2;77;247;3,6;0,0
28/08/2026;17:34:00;1005,3;;;23,1;77;241;3,7;0,0
28/08/2026;17:39:00;1005,0;;;23,0;77;239;3,3;0,0
28/08/2026;17:44:00;1005,1;;;22,9;77;246;4,2;0,0
28/08/2026;17:49:00;1004,9;;;22,8;77;243;3,4;0,0
28/08/2026;17:54:00;1005,2;;;22,6;77;244;4,1;0,0
28/08/2026;17:59:00;1005,5;;;22,5;77;235;4,4;0,0
28/08/2026;18:04:00;1005,5;;;22,3;77;227;4,8;0,0
28/08/2026;18:09:00;1005,4;;;22,2;78;219;4,7;0,0
28/08/2026;18:14:00;1005,6;;;22,0;78;231;3,4;0,0
28/08/2026;18:19:00;1005,8;;;21,9;78;246;3,0;0,0
28/08/2026;18:24:00;1005,8;;;21,8;78;221;2,5;0,0
28/08/2026;18:29:00;1005,7;;;21,7;78;208;1,9;0,0
28/08/2026;18:34:00;1005,8;;;21,7;78;208;3,3;0,0
28/08/2026;18:39:00;1006,0;;;21,6;78;211;3,2;0,0
28/08/2026;18:44:00;1006,1;;;21,6;78;210;3,5;0,0
28/08/2026;18:49:00;1006,1;;;21,5;78;208;3,2;0,0
28/08/2026;18:54:00;1006,0;;;21,4;78;214;2,6;0,0
28/08/2026;18:59:00;1005,8;;;21,4;78;203;2,9;0,0
28/08/2026;19:04:00;1006,1;;;21,3;78;211;3,5;0,0
28/08/2026;19:09:00;1006,3;;;21,3;78;214;4,1;0,0
28/08/2026;19:14:00;1006,9;;;21,2;78;223;3,7;0,0
28/08/2026;19:19:00;1006,9;;;21,2;78;212;3,0;0,0
28/08/2026;19:24:00;1006,7;;;21,2;78;207;3,3;0,0
28/08/2026;19:29:00;1006,7;;;21,1;78;204;3,3;0,0
28/08/2026;19:34:00;1006,8;;;21,0;78;209;3,2;0,0
28/08/2026;19:39:00;1007,0;;;21,0;78;215;3,6;0,0
28/08/2026;19:44:00;1007,3;;;20,9;78;212;3,6;0,0
28/08/2026;19:49:00;1007,1;;;20,9;78;199;3,0;0,0
28/08/2026;19:54:00;1006,9;;;20,8;78;213;2,6;0,0
28/08/2026;19:59:00;1007,0;;;20,7;78;205;2,7;0,0
28/08/2026;20:04:00;1006,8;;;20,7;78;206;2,2;0,0
28/08/2026;20:09:00;1007,0;;;20,6;78;210;2,3;0,0
28/08/2026;20:14:00;1007,1;;;20,6;78;203;2,2;0,0
28/08/2026;20:19:00;1007,1;;;20,6;78;206;2,7;0,0
28/08/2026;20:24:00;1007,0;;;20,5;79;211;2,3;0,0
28/08/2026;20:29:00;1006,6;;;20,5;79;203;1,5;0,0
28/08/2026;20:34:00;1006,4;;;20,5;79;196;0,9;0,0
28/08/2026;20:39:00;1006,3;;;20,5;79;268;0,4;0,0
28/08/2026;20:44:00;1006,3;;;20,5;79;233;0,5;0,0
28/08/2026;20:49:00;1006,5;;;20,5;79;211;0,6;0,0
28/08/2026;20:54:00;1006,5;;;20,5;78;210;0,7;0,0
28/08/2026;20:59:00;1006,5;;;20,5;78;199;0,5;0,0
28/08/2026;21:04:00;1006,4;;;20,5;78;183;0,6;0,0
28/08/2026;21:09:00;1006,4;;;20,5;78;156;0,5;0,0
28/08/2026;21:14:00;1006,4;;;20,5;78;104;0,3;0,0
28/08/2026;21:19:00;1006,3;;;20,5;78;139;1,1;0,0
28/08/2026;21:24:00;1006,2;;;20,5;78;221;0,7;0,0
28/08/2026;21:29:00;1006,2;;;20,5;78;153;1,1;0,0
28/08/2026;21:34:00;1006,1;;;20,6;79;125;1,2;0,0
28/08/2026;21:39:00;1006,3;;;20,6;78;160;0,8;0,0
28/08/2026;21:44:00;1006,2;;;20,6;78;123;0,9;0,0
28/08/2026;21:49:00;1006,1;;;20,6;78;93;1,1;0,0
28/08/2026;21:54:00;1006,0;;;20,7;79;66;1,2;0,0
28/08/2026;21:59:00;1005,9;;;20,7;78;53;1,3;0,0
28/08/2026;22:04:00;1006,0;;;20,8;78;75;1,4;0,0
28/08/2026;22:09:00;1005,9;;;20,8;78;66;1,3;0,0
28/08/2026;22:14:00;1005,7;;;20,8;78;67;1,3;0,0
28/08/2026;22:19:00;1005,8;;;20,8;78;55;0,9;0,0
28/08/2026;22:24:00;1005,8;;;20,7;78;62;1,3;0,0
28/08/2026;22:29:00;1005,8;;;20,7;78;52;1,2;0,0
28/08/2026;22:34:00;1005,7;;;20,6;78;48;1,5;0,0
28/08/2026;22:39:00;1005,6;;;20,6;78;41;1,7;0,0
28/08/2026;22:44:00;1005,7;;;20,5;78;42;1,6;0,0
28/08/2026;22:49:00;1005,7;;;20,4;78;40;1,6;0,0
28/08/2026;22:54:00;1005,7;;;20,4;78;32;2,3;0,0
28/08/2026;22:59:00;1005,8;;;20,4;78;36;1,9;0,0
28/08/2026;23:04:00;1005,9;;;20,4;78;31;2,5;0,0
28/08/2026;23:09:00;1005,7;;;20,3;78;31;2,8;0,0
28/08/2026;23:14:00;1005,7;;;20,3;78;24;2,8;0,0
28/08/2026;23:19:00;1005,7;;;20,3;78;23;3,5;0,0
28/08/2026;23:24:00;1005,7;;;20,2;78;26;3,6;0,0
28/08/2026;23:29:00;1005,7;;;20,2;78;24;3,3;0,0
28/08/2026;23:34:00;1005,8;;;20,1;78;20;2,9;0,0
28/08/2026;23:39:00;1005,7;;;20,1;78;19;3,3;0,0
28/08/2026;23:44:00;1005,8;;;20,1;78;21;3,1;0,0
28/08/2026;23:49:00;1005,8;;;20,1;78;20;3,2;0,0
28/08/2026;23:54:00;1005,8;;;20,1;78;21;3,4;0,0
28/08/2026;23:59:00;1005,9;;;20,1;78;20;2,8;0,0
